,,PA_Meas_PMT16A,,PR_Meas_QMR101_102,,RH_Meas_QMH101,,SR_Meas_QMS101,,TA_Meas_QMH101,,GenWind,,GenWind,
time,status,PA,status,PR,status,RH,status,SR,status,TA,status,DirAvg,status,SpdAvg,
2012-05-27, 00:00:04,VALID,916.98,VALID,0,VALID,96.4743,VALID,0.107441,VALID,18.9994,VALID,143,VALID,0.845703,
2012-05-27, 00:01:04,VALID,916.977,VALID,0,VALID,96.4743,VALID,0,VALID,18.9994,VALID,143,VALID,0.596094,
2012-05-27, 00:02:04,VALID,916.972,VALID,0,VALID,96.4591,VALID,0,VALID,18.9785,VALID,143,VALID,0.851563,
2012-05-27, 00:03:04,VALID,916.984,VALID,0,VALID,96.4438,VALID,0,VALID,18.9785,VALID,143,VALID,0.823438,
2012-05-27, 00:04:04,VALID,917,VALID,0,VALID,96.3981,VALID,0,VALID,19.0189,VALID,143,VALID,0.734766,
2012-05-27, 00:05:04,VALID,916.993,VALID,0,VALID,96.3981,VALID,0,VALID,19.0203,VALID,143,VALID,0.609766,
2012-05-27, 00:06:04,VALID,917.014,VALID,0,VALID,96.4057,VALID,0,VALID,18.9994,VALID,160,VALID,0.506641,
2012-05-27, 00:07:04,VALID,916.993,VALID,0,VALID,96.36,VALID,0,VALID,18.9799,VALID,137,VALID,0.364062,
2012-05-27, 00:08:04,VALID,917.018,VALID,0,VALID,96.3981,VALID,0,VALID,18.9994,VALID,152,VALID,1.21289,
2012-05-27, 00:09:04,VALID,917.014,VALID,0,VALID,96.3905,VALID,0,VALID,19.0189,VALID,154,VALID,0.684766,
2012-05-27, 00:10:04,VALID,917.012,VALID,0,VALID,96.3295,VALID,0,VALID,19.0384,VALID,108,VALID,0.653906,
2012-05-27, 00:11:04,VALID,917.024,VALID,0,VALID,96.3371,VALID,0,VALID,18.9994,VALID,126,VALID,0.832031,
2012-05-27, 00:12:04,VALID,917.026,VALID,0,VALID,96.299,VALID,0,VALID,18.9994,VALID,134,VALID,0.658594,
2012-05-27, 00:13:04,VALID,917.012,VALID,0,VALID,96.299,VALID,0,VALID,18.9799,VALID,134,VALID,0.56875,
2012-05-27, 00:14:04,VALID,917.01,VALID,0,VALID,96.2914,VALID,0,VALID,18.9604,VALID,134,VALID,0.655078,
2012-05-27, 00:15:04,VALID,916.988,VALID,0,VALID,96.2761,VALID,0,VALID,18.9604,VALID,113,VALID,0.582812,
2012-05-27, 00:16:04,VALID,916.996,VALID,0,VALID,96.2685,VALID,0,VALID,18.9604,VALID,113,VALID,0.917969,
2012-05-27, 00:17:04,VALID,917.009,VALID,0,VALID,96.2456,VALID,0,VALID,18.9409,VALID,113,VALID,0.832422,
2012-05-27, 00:18:04,VALID,917.024,VALID,0,VALID,96.1999,VALID,0,VALID,18.9019,VALID,113,VALID,1.13437,
2012-05-27, 00:19:05,VALID,917.068,VALID,0,VALID,96.2914,VALID,0,VALID,18.9019,VALID,102,VALID,1.70898,
2012-05-27, 00:20:05,VALID,917.089,VALID,0,VALID,96.2609,VALID,0,VALID,18.8824,VALID,96,VALID,1.17344,
2012-05-27, 00:21:05,VALID,917.113,VALID,0,VALID,96.2685,VALID,0,VALID,18.8824,VALID,99,VALID,1.64727,
2012-05-27, 00:22:05,VALID,917.144,VALID,0,VALID,96.2761,VALID,0,VALID,18.9019,VALID,103,VALID,0.817969,
2012-05-27, 00:23:05,VALID,917.139,VALID,0,VALID,96.2609,VALID,0,VALID,18.8824,VALID,103,VALID,1.775,
2012-05-27, 00:24:05,VALID,917.086,VALID,0,VALID,96.2456,VALID,0,VALID,18.8629,VALID,99,VALID,0.996484,
2012-05-27, 00:25:05,VALID,917.073,VALID,0,VALID,96.238,VALID,0.107441,VALID,18.8824,VALID,113,VALID,0.639844,
2012-05-27, 00:26:05,VALID,917.039,VALID,0,VALID,96.238,VALID,0,VALID,18.8629,VALID,132,VALID,0.685938,
2012-05-27, 00:27:05,VALID,917.004,VALID,0,VALID,96.2914,VALID,0,VALID,18.8629,VALID,132,VALID,0.977734,
2012-05-27, 00:28:05,VALID,916.962,VALID,0,VALID,96.2837,VALID,0,VALID,18.8434,VALID,132,VALID,0.794531,
2012-05-27, 00:29:05,VALID,916.92,VALID,0,VALID,96.2456,VALID,0,VALID,18.8629,VALID,131,VALID,0.672266,
2012-05-27, 00:30:05,VALID,916.923,VALID,0,VALID,96.2075,VALID,0,VALID,18.824,VALID,109,VALID,0.935156,
2012-05-27, 00:31:05,VALID,916.923,VALID,0,VALID,96.2609,VALID,0,VALID,18.8045,VALID,94,VALID,1.12852,
2012-05-27, 00:32:05,VALID,916.928,VALID,0,VALID,96.2761,VALID,0,VALID,18.8045,VALID,94,VALID,0.998828,
2012-05-27, 00:33:05,VALID,916.962,VALID,0,VALID,96.2761,VALID,0.107441,VALID,18.785,VALID,94,VALID,1.0418,
2012-05-27, 00:34:05,VALID,916.913,VALID,0,VALID,96.3219,VALID,0,VALID,18.7655,VALID,94,VALID,0.976563,
2012-05-27, 00:35:05,VALID,916.946,VALID,0,VALID,96.3295,VALID,0.107441,VALID,18.7446,VALID,94,VALID,0.766016,
2012-05-27, 00:36:05,VALID,916.928,VALID,0,VALID,96.3829,VALID,0,VALID,18.746,VALID,94,VALID,0.673047,
2012-05-27, 00:37:05,VALID,916.925,VALID,0,VALID,96.421,VALID,0,VALID,18.7251,VALID,94,VALID,0.751172,
2012-05-27, 00:38:05,VALID,916.927,VALID,0,VALID,96.4515,VALID,0,VALID,18.7655,VALID,108,VALID,1.28945,
2012-05-27, 00:39:05,VALID,916.841,VALID,0,VALID,96.3905,VALID,0,VALID,18.7655,VALID,108,VALID,0.938281,
2012-05-27, 00:40:05,VALID,916.841,VALID,0,VALID,96.3524,VALID,0,VALID,18.7835,VALID,108,VALID,0.732031,
2012-05-27, 00:41:05,VALID,916.824,VALID,0,VALID,96.3447,VALID,0,VALID,18.8045,VALID,108,VALID,0.825391,
2012-05-27, 00:42:05,VALID,916.862,VALID,0,VALID,96.2837,VALID,0,VALID,18.8434,VALID,108,VALID,0.523047,
2012-05-27, 00:43:05,VALID,916.85,VALID,0,VALID,96.2533,VALID,0,VALID,18.8629,VALID,108,VALID,0.163672,
2012-05-27, 00:44:05,VALID,916.836,VALID,0,VALID,96.1923,VALID,0,VALID,18.8434,VALID,108,VALID,0.255078,
2012-05-27, 00:45:05,VALID,916.843,VALID,0,VALID,96.1389,VALID,0,VALID,18.8434,VALID,108,VALID,0.565625,
2012-05-27, 00:46:05,VALID,916.851,VALID,0,VALID,96.0474,VALID,0.107441,VALID,18.7835,VALID,108,VALID,0.741797,
2012-05-27, 00:47:05,VALID,916.8,VALID,0,VALID,95.9941,VALID,0,VALID,18.764,VALID,107,VALID,0.723828,
2012-05-27, 00:48:05,VALID,916.814,VALID,0,VALID,95.9788,VALID,0,VALID,18.7655,VALID,108,VALID,0.697266,
2012-05-27, 00:49:05,VALID,916.802,VALID,0,VALID,96.0245,VALID,0,VALID,18.764,VALID,108,VALID,0.713672,
2012-05-27, 00:50:05,VALID,916.791,VALID,0,VALID,96.0932,VALID,0,VALID,18.7655,VALID,108,VALID,0.803906,
2012-05-27, 00:51:05,VALID,916.785,VALID,0,VALID,96.0779,VALID,0,VALID,18.7251,VALID,108,VALID,0.687891,
2012-05-27, 00:52:05,VALID,916.788,VALID,0,VALID,96.1236,VALID,0,VALID,18.707,VALID,108,VALID,0.573438,
2012-05-27, 00:53:05,VALID,916.77,VALID,0,VALID,96.1313,VALID,0,VALID,18.707,VALID,108,VALID,0.832422,
2012-05-27, 00:54:05,VALID,916.772,VALID,0,VALID,96.1618,VALID,0.107441,VALID,18.7265,VALID,108,VALID,0.641016,
2012-05-27, 00:55:05,VALID,916.748,VALID,0,VALID,96.1618,VALID,0,VALID,18.707,VALID,108,VALID,0.408984,
2012-05-27, 00:56:05,VALID,916.788,VALID,0,VALID,96.1694,VALID,0,VALID,18.7265,VALID,108,VALID,0.166016,
2012-05-27, 00:57:05,VALID,916.808,VALID,0,VALID,96.1465,VALID,0,VALID,18.7265,VALID,108,VALID,0.00859375,
2012-05-27, 00:58:05,VALID,916.784,VALID,0,VALID,96.1389,VALID,0,VALID,18.7655,VALID,108,VALID,0.0933594,
2012-05-27, 00:59:05,VALID,916.774,VALID,0,VALID,96.1541,VALID,0,VALID,18.7655,VALID,108,VALID,0,
2012-05-27, 01:00:05,VALID,916.773,VALID,0,VALID,96.1465,VALID,0,VALID,18.785,VALID,108,VALID,0,
2012-05-27, 01:01:05,VALID,916.739,VALID,0,VALID,96.116,VALID,0,VALID,18.785,VALID,108,VALID,0,
2012-05-27, 01:02:05,VALID,916.713,VALID,0,VALID,96.0932,VALID,0,VALID,18.7864,VALID,108,VALID,0,
2012-05-27, 01:03:05,VALID,916.702,VALID,0,VALID,96.116,VALID,0,VALID,18.7655,VALID,108,VALID,0,
2012-05-27, 01:04:05,VALID,916.673,VALID,0,VALID,96.0703,VALID,0,VALID,18.785,VALID,108,VALID,0,
2012-05-27, 01:05:05,VALID,916.643,VALID,0,VALID,96.055,VALID,0,VALID,18.7655,VALID,108,VALID,0,
2012-05-27, 01:06:05,VALID,916.611,VALID,0,VALID,96.0779,VALID,0,VALID,18.7655,VALID,108,VALID,0,
2012-05-27, 01:07:05,VALID,916.573,VALID,0,VALID,96.055,VALID,0,VALID,18.8059,VALID,108,VALID,0.640625,
2012-05-27, 01:08:05,VALID,916.548,VALID,0,VALID,96.0703,VALID,0,VALID,18.8059,VALID,108,VALID,0.702344,
2012-05-27, 01:09:05,VALID,916.55,VALID,0,VALID,96.0779,VALID,0,VALID,18.764,VALID,129,VALID,0.706641,
2012-05-27, 01:10:05,VALID,916.517,VALID,0,VALID,96.0932,VALID,0,VALID,18.7655,VALID,142,VALID,1.05977,
2012-05-27, 01:11:05,VALID,916.529,VALID,0,VALID,96.1694,VALID,0,VALID,18.7474,VALID,142,VALID,1.31875,
2012-05-27, 01:12:05,VALID,916.526,VALID,0,VALID,96.2151,VALID,0,VALID,18.746,VALID,142,VALID,1.27813,
2012-05-27, 01:13:05,VALID,916.522,VALID,0,VALID,96.2075,VALID,0,VALID,18.746,VALID,120,VALID,1.35664,
2012-05-27, 01:14:05,VALID,916.506,VALID,0,VALID,96.2456,VALID,0,VALID,18.7265,VALID,120,VALID,1.11055,
2012-05-27, 01:15:05,VALID,916.5,VALID,0,VALID,96.1694,VALID,0,VALID,18.7474,VALID,117,VALID,1.29062,
2012-05-27, 01:16:05,VALID,916.488,VALID,0,VALID,96.1313,VALID,0,VALID,18.7474,VALID,113,VALID,0.773047,
2012-05-27, 01:17:05,VALID,916.443,VALID,0,VALID,96.1389,VALID,0,VALID,18.707,VALID,117,VALID,0.901172,
2012-05-27, 01:18:05,VALID,916.443,VALID,0,VALID,96.1618,VALID,0,VALID,18.7265,VALID,126,VALID,1.16641,
2012-05-27, 01:19:05,VALID,916.42,VALID,0,VALID,96.1846,VALID,0,VALID,18.7279,VALID,126,VALID,1.14375,
2012-05-27, 01:20:05,VALID,916.397,VALID,0,VALID,96.2304,VALID,0,VALID,18.7474,VALID,126,VALID,1.35195,
2012-05-27, 01:21:05,VALID,916.396,VALID,0,VALID,96.2533,VALID,0,VALID,18.707,VALID,154,VALID,1.0457,
2012-05-27, 01:22:05,VALID,916.396,VALID,0,VALID,96.2228,VALID,0,VALID,18.746,VALID,130,VALID,1.27539,
2012-05-27, 01:23:05,VALID,916.342,VALID,0,VALID,96.2151,VALID,0,VALID,18.707,VALID,139,VALID,1.08789,
2012-05-27, 01:24:05,VALID,916.411,VALID,0,VALID,96.1846,VALID,0,VALID,18.7474,VALID,128,VALID,1.22695,
2012-05-27, 01:25:05,VALID,916.4,VALID,0,VALID,96.1999,VALID,0,VALID,18.707,VALID,128,VALID,1.31172,
2012-05-27, 01:26:05,VALID,916.401,VALID,0,VALID,96.2228,VALID,0,VALID,18.7474,VALID,131,VALID,1.73789,
2012-05-27, 01:27:05,VALID,916.367,VALID,0,VALID,96.1999,VALID,0,VALID,18.746,VALID,129,VALID,1.31016,
2012-05-27, 01:28:05,VALID,916.389,VALID,0,VALID,96.1694,VALID,0,VALID,18.7669,VALID,141,VALID,1.4375,
2012-05-27, 01:29:05,VALID,916.355,VALID,0,VALID,96.1465,VALID,0,VALID,18.7265,VALID,146,VALID,1.13672,
2012-05-27, 01:30:05,VALID,916.352,VALID,0,VALID,96.1313,VALID,0,VALID,18.7655,VALID,144,VALID,0.765234,
2012-05-27, 01:31:05,VALID,916.343,VALID,0,VALID,96.1084,VALID,0,VALID,18.746,VALID,136,VALID,0.934375,
2012-05-27, 01:32:05,VALID,916.368,VALID,0,VALID,96.0703,VALID,0,VALID,18.7669,VALID,135,VALID,0.505859,
2012-05-27, 01:33:05,VALID,916.352,VALID,0,VALID,96.0245,VALID,0,VALID,18.7265,VALID,135,VALID,0.506641,
2012-05-27, 01:34:05,VALID,916.327,VALID,0,VALID,96.0245,VALID,0,VALID,18.7474,VALID,135,VALID,0.410937,
2012-05-27, 01:35:05,VALID,916.328,VALID,0,VALID,95.9941,VALID,0,VALID,18.707,VALID,135,VALID,0.641016,
2012-05-27, 01:36:05,VALID,916.35,VALID,0,VALID,95.9559,VALID,0,VALID,18.707,VALID,135,VALID,0.499609,
2012-05-27, 01:37:05,VALID,916.308,VALID,0,VALID,95.9331,VALID,0,VALID,18.7279,VALID,135,VALID,0.326562,
2012-05-27, 01:38:05,VALID,916.332,VALID,0,VALID,95.9254,VALID,0,VALID,18.7084,VALID,135,VALID,0.0316406,
2012-05-27, 01:39:05,VALID,916.321,VALID,0,VALID,95.9483,VALID,0,VALID,18.668,VALID,135,VALID,0.451953,
2012-05-27, 01:40:05,VALID,916.303,VALID,0,VALID,95.9102,VALID,0,VALID,18.6694,VALID,135,VALID,0.294922,
2012-05-27, 01:41:05,VALID,916.314,VALID,0,VALID,95.9407,VALID,0,VALID,18.6694,VALID,135,VALID,0.478906,
2012-05-27, 01:42:05,VALID,916.282,VALID,0,VALID,95.9636,VALID,0,VALID,18.668,VALID,135,VALID,0.881641,
2012-05-27, 01:43:05,VALID,916.28,VALID,0,VALID,96.0169,VALID,0,VALID,18.6499,VALID,135,VALID,0.847656,
2012-05-27, 01:44:05,VALID,916.281,VALID,0,VALID,96.0627,VALID,0,VALID,18.668,VALID,135,VALID,0.956641,
2012-05-27, 01:45:05,VALID,916.266,VALID,0,VALID,96.0245,VALID,0,VALID,18.668,VALID,135,VALID,0.726953,
2012-05-27, 01:46:05,VALID,916.229,VALID,0,VALID,96.0627,VALID,0,VALID,18.7084,VALID,135,VALID,1.01797,
2012-05-27, 01:47:05,VALID,916.216,VALID,0,VALID,96.0855,VALID,0,VALID,18.7474,VALID,135,VALID,1.12969,
2012-05-27, 01:48:05,VALID,916.218,VALID,0,VALID,96.1084,VALID,0,VALID,18.7669,VALID,135,VALID,1.03711,
2012-05-27, 01:49:05,VALID,916.193,VALID,0,VALID,96.116,VALID,0,VALID,18.7265,VALID,135,VALID,0.825,
2012-05-27, 01:50:05,VALID,916.188,VALID,0,VALID,96.1236,VALID,0,VALID,18.7655,VALID,135,VALID,0.258203,
2012-05-27, 01:51:05,VALID,916.205,VALID,0,VALID,96.1313,VALID,0,VALID,18.7655,VALID,135,VALID,0.396484,
2012-05-27, 01:52:05,VALID,916.204,VALID,0,VALID,96.1618,VALID,0,VALID,18.7265,VALID,135,VALID,0,
2012-05-27, 01:53:05,VALID,916.196,VALID,0,VALID,96.1618,VALID,0,VALID,18.7655,VALID,135,VALID,0.467969,
2012-05-27, 01:54:05,VALID,916.16,VALID,0,VALID,96.1618,VALID,0,VALID,18.7655,VALID,135,VALID,0.00585938,
2012-05-27, 01:55:05,VALID,916.124,VALID,0,VALID,96.1465,VALID,0,VALID,18.7474,VALID,135,VALID,0.442969,
2012-05-27, 01:56:05,VALID,916.14,VALID,0,VALID,96.1999,VALID,0,VALID,18.7669,VALID,135,VALID,0.574219,
2012-05-27, 01:57:05,VALID,916.105,VALID,0,VALID,96.2151,VALID,0,VALID,18.7265,VALID,135,VALID,1.00117,
2012-05-27, 01:58:05,VALID,916.1,VALID,0,VALID,96.238,VALID,0,VALID,18.7669,VALID,135,VALID,0.941797,
2012-05-27, 01:59:05,VALID,916.092,VALID,0,VALID,96.2151,VALID,0,VALID,18.7669,VALID,135,VALID,1.08672,
2012-05-27, 02:00:05,VALID,916.076,VALID,0,VALID,96.2228,VALID,0,VALID,18.7265,VALID,135,VALID,1.03945,
2012-05-27, 02:01:05,VALID,916.1,VALID,0,VALID,96.238,VALID,0,VALID,18.746,VALID,135,VALID,0.95625,
2012-05-27, 02:02:05,VALID,916.039,VALID,0,VALID,96.1999,VALID,0,VALID,18.7474,VALID,135,VALID,0.9875,
2012-05-27, 02:03:05,VALID,916.014,VALID,0,VALID,96.2075,VALID,0,VALID,18.7265,VALID,136,VALID,0.686328,
2012-05-27, 02:04:05,VALID,916.02,VALID,0,VALID,96.2304,VALID,0,VALID,18.7474,VALID,136,VALID,0.534766,
2012-05-27, 02:05:05,VALID,916.003,VALID,0,VALID,96.2075,VALID,0,VALID,18.7084,VALID,136,VALID,0.570313,
2012-05-27, 02:06:05,VALID,916.021,VALID,0,VALID,96.238,VALID,0,VALID,18.6889,VALID,136,VALID,0.726953,
2012-05-27, 02:07:05,VALID,916.007,VALID,0,VALID,96.2914,VALID,0,VALID,18.6485,VALID,136,VALID,0.543359,
2012-05-27, 02:08:05,VALID,916.005,VALID,0,VALID,96.3142,VALID,0,VALID,18.6304,VALID,138,VALID,0.558984,
2012-05-27, 02:09:05,VALID,915.963,VALID,0,VALID,96.36,VALID,0,VALID,18.6109,VALID,137,VALID,0.432422,
2012-05-27, 02:10:05,VALID,915.979,VALID,0,VALID,96.4362,VALID,0,VALID,18.59,VALID,137,VALID,0.601172,
2012-05-27, 02:11:05,VALID,915.978,VALID,0,VALID,96.4972,VALID,0,VALID,18.5914,VALID,137,VALID,0.662891,
2012-05-27, 02:12:05,VALID,915.95,VALID,0,VALID,96.5353,VALID,0,VALID,18.5705,VALID,137,VALID,0.59375,
2012-05-27, 02:13:05,VALID,915.951,VALID,0,VALID,96.5582,VALID,0,VALID,18.5121,VALID,137,VALID,0.421484,
2012-05-27, 02:14:05,VALID,915.927,VALID,0,VALID,96.6268,VALID,0,VALID,18.572,VALID,137,VALID,0.566406,
2012-05-27, 02:15:05,VALID,915.891,VALID,0,VALID,96.6802,VALID,0,VALID,18.5511,VALID,137,VALID,0.161719,
2012-05-27, 02:16:05,VALID,915.894,VALID,0,VALID,96.703,VALID,0,VALID,18.5121,VALID,137,VALID,0.124609,
2012-05-27, 02:17:05,VALID,915.888,VALID,0,VALID,96.7259,VALID,0,VALID,18.5316,VALID,137,VALID,0.113672,
2012-05-27, 02:18:05,VALID,915.878,VALID,0,VALID,96.825,VALID,0,VALID,18.5525,VALID,156,VALID,0.748047,
2012-05-27, 02:19:05,VALID,915.904,VALID,0,VALID,96.8707,VALID,0,VALID,18.5705,VALID,186,VALID,0.894531,
2012-05-27, 02:20:05,VALID,915.867,VALID,0,VALID,96.8936,VALID,0,VALID,18.5914,VALID,158,VALID,0.967578,
2012-05-27, 02:21:05,VALID,915.835,VALID,0,VALID,96.9317,VALID,0,VALID,18.6095,VALID,165,VALID,1.39609,
2012-05-27, 02:22:05,VALID,915.819,VALID,0,VALID,96.9165,VALID,0,VALID,18.629,VALID,160,VALID,0.842969,
2012-05-27, 02:23:05,VALID,915.814,VALID,0,VALID,96.9165,VALID,0,VALID,18.6095,VALID,160,VALID,1.05781,
2012-05-27, 02:24:05,VALID,915.794,VALID,0,VALID,96.9241,VALID,0,VALID,18.629,VALID,160,VALID,0.738281,
2012-05-27, 02:25:05,VALID,915.79,VALID,0,VALID,96.8936,VALID,0,VALID,18.629,VALID,160,VALID,0.337891,
2012-05-27, 02:26:05,VALID,915.792,VALID,0,VALID,96.8784,VALID,0,VALID,18.6095,VALID,160,VALID,0.264062,
2012-05-27, 02:27:05,VALID,915.769,VALID,0,VALID,96.8936,VALID,0,VALID,18.6499,VALID,160,VALID,0.605469,
2012-05-27, 02:28:05,VALID,915.778,VALID,0,VALID,96.886,VALID,0,VALID,18.59,VALID,160,VALID,0.427734,
2012-05-27, 02:29:05,VALID,915.732,VALID,0,VALID,96.8555,VALID,0,VALID,18.6095,VALID,160,VALID,0.254297,
2012-05-27, 02:30:05,VALID,915.734,VALID,0,VALID,96.8098,VALID,0.107441,VALID,18.59,VALID,160,VALID,0.620313,
2012-05-27, 02:31:05,VALID,915.685,VALID,0,VALID,96.8174,VALID,0,VALID,18.5705,VALID,160,VALID,0.70625,
2012-05-27, 02:32:05,VALID,915.716,VALID,0,VALID,96.8403,VALID,0,VALID,18.5511,VALID,160,VALID,0.441016,
2012-05-27, 02:33:05,VALID,915.729,VALID,0,VALID,96.8555,VALID,0,VALID,18.572,VALID,160,VALID,0.475391,
2012-05-27, 02:34:05,VALID,915.696,VALID,0,VALID,96.9012,VALID,0,VALID,18.5705,VALID,160,VALID,0.644922,
2012-05-27, 02:35:05,VALID,915.709,VALID,0,VALID,96.9165,VALID,0,VALID,18.59,VALID,160,VALID,0.688672,
2012-05-27, 02:36:05,VALID,915.715,VALID,0,VALID,96.886,VALID,0,VALID,18.6109,VALID,160,VALID,0.415625,
2012-05-27, 02:37:05,VALID,915.723,VALID,0,VALID,96.9622,VALID,0,VALID,18.6304,VALID,160,VALID,0.7125,
2012-05-27, 02:38:05,VALID,915.714,VALID,0,VALID,96.8784,VALID,0,VALID,18.629,VALID,160,VALID,0.862109,
2012-05-27, 02:39:05,VALID,915.685,VALID,0,VALID,96.8784,VALID,0.107441,VALID,18.6095,VALID,147,VALID,0.853516,
2012-05-27, 02:40:05,VALID,915.677,VALID,0,VALID,96.8784,VALID,0,VALID,18.629,VALID,135,VALID,0.675781,
2012-05-27, 02:41:05,VALID,915.682,VALID,0,VALID,96.8555,VALID,0,VALID,18.6095,VALID,135,VALID,0.972656,
2012-05-27, 02:42:05,VALID,915.648,VALID,0,VALID,96.9394,VALID,0,VALID,18.629,VALID,148,VALID,1.11875,
2012-05-27, 02:43:05,VALID,915.632,VALID,0,VALID,96.9241,VALID,0,VALID,18.6499,VALID,140,VALID,0.674609,
2012-05-27, 02:44:05,VALID,915.612,VALID,0,VALID,96.9165,VALID,0,VALID,18.629,VALID,127,VALID,0.626953,
2012-05-27, 02:45:05,VALID,915.617,VALID,0,VALID,96.9089,VALID,0,VALID,18.6499,VALID,127,VALID,0.530469,
2012-05-27, 02:46:05,VALID,915.595,VALID,0,VALID,96.9012,VALID,0,VALID,18.668,VALID,145,VALID,0.737109,
2012-05-27, 02:47:05,VALID,915.579,VALID,0,VALID,96.9317,VALID,0,VALID,18.6875,VALID,139,VALID,0.642187,
2012-05-27, 02:48:05,VALID,915.588,VALID,0,VALID,96.8784,VALID,0,VALID,18.707,VALID,139,VALID,0.794141,
2012-05-27, 02:49:05,VALID,915.584,VALID,0,VALID,96.8555,VALID,0,VALID,18.7279,VALID,136,VALID,0.873828,
2012-05-27, 02:50:05,VALID,915.591,VALID,0,VALID,96.8021,VALID,0,VALID,18.7279,VALID,141,VALID,0.565625,
2012-05-27, 02:51:05,VALID,915.617,VALID,0,VALID,96.8174,VALID,0,VALID,18.7279,VALID,135,VALID,1.36758,
2012-05-27, 02:52:05,VALID,915.594,VALID,0,VALID,96.8021,VALID,0,VALID,18.707,VALID,139,VALID,0.836328,
2012-05-27, 02:53:05,VALID,915.567,VALID,0,VALID,96.8098,VALID,0.107441,VALID,18.7265,VALID,144,VALID,1.22539,
2012-05-27, 02:54:05,VALID,915.562,VALID,0,VALID,96.7869,VALID,0,VALID,18.707,VALID,164,VALID,1.39727,
2012-05-27, 02:55:05,VALID,915.56,VALID,0,VALID,96.764,VALID,0,VALID,18.7279,VALID,140,VALID,0.969141,
2012-05-27, 02:56:05,VALID,915.55,VALID,0,VALID,96.7183,VALID,0,VALID,18.707,VALID,146,VALID,0.727734,
2012-05-27, 02:57:05,VALID,915.539,VALID,0,VALID,96.7259,VALID,0,VALID,18.6875,VALID,142,VALID,0.855469,
2012-05-27, 02:58:05,VALID,915.56,VALID,0,VALID,96.7107,VALID,0,VALID,18.707,VALID,149,VALID,0.591016,
2012-05-27, 02:59:05,VALID,915.563,VALID,0,VALID,96.6649,VALID,0,VALID,18.707,VALID,165,VALID,0.439453,
2012-05-27, 03:00:05,VALID,915.59,VALID,0,VALID,96.642,VALID,0,VALID,18.7474,VALID,165,VALID,0.820313,
2012-05-27, 03:01:05,VALID,915.595,VALID,0,VALID,96.6192,VALID,0,VALID,18.746,VALID,132,VALID,0.710156,
2012-05-27, 03:02:05,VALID,915.621,VALID,0,VALID,96.5811,VALID,0,VALID,18.7474,VALID,137,VALID,0.799219,
2012-05-27, 03:03:05,VALID,915.608,VALID,0,VALID,96.5201,VALID,0,VALID,18.7265,VALID,138,VALID,1.12969,
2012-05-27, 03:04:05,VALID,915.586,VALID,0,VALID,96.4438,VALID,0,VALID,18.7265,VALID,138,VALID,1.32305,
2012-05-27, 03:05:05,VALID,915.531,VALID,0,VALID,96.421,VALID,0,VALID,18.6875,VALID,128,VALID,1.52109,
2012-05-27, 03:06:05,VALID,915.538,VALID,0,VALID,96.3752,VALID,0,VALID,18.6875,VALID,127,VALID,0.892969,
2012-05-27, 03:07:04,VALID,915.531,VALID,0,VALID,96.3676,VALID,0,VALID,18.668,VALID,131,VALID,1.33984,
2012-05-27, 03:08:04,VALID,915.531,VALID,0,VALID,96.3295,VALID,0,VALID,18.6875,VALID,131,VALID,1.35938,
2012-05-27, 03:09:04,VALID,915.514,VALID,0,VALID,96.299,VALID,0,VALID,18.7084,VALID,131,VALID,1.17578,
2012-05-27, 03:10:04,VALID,915.487,VALID,0,VALID,96.2456,VALID,0,VALID,18.6889,VALID,131,VALID,0.999609,
2012-05-27, 03:11:04,VALID,915.5,VALID,0,VALID,96.1999,VALID,0,VALID,18.6694,VALID,139,VALID,0.554297,
2012-05-27, 03:12:04,VALID,915.483,VALID,0,VALID,96.1618,VALID,0,VALID,18.6485,VALID,132,VALID,0.860547,
2012-05-27, 03:13:04,VALID,915.482,VALID,0,VALID,96.1236,VALID,0,VALID,18.6485,VALID,132,VALID,0.494141,
2012-05-27, 03:14:04,VALID,915.469,VALID,0,VALID,96.1084,VALID,0,VALID,18.6499,VALID,143,VALID,0.914844,
2012-05-27, 03:15:04,VALID,915.482,VALID,0,VALID,96.055,VALID,0,VALID,18.6095,VALID,157,VALID,1.19687,
2012-05-27, 03:16:04,VALID,915.455,VALID,0,VALID,96.0779,VALID,0,VALID,18.6304,VALID,132,VALID,1.35625,
2012-05-27, 03:17:04,VALID,915.469,VALID,0,VALID,96.0474,VALID,0,VALID,18.5914,VALID,169,VALID,0.992578,
2012-05-27, 03:18:04,VALID,915.431,VALID,0,VALID,96.055,VALID,0.107441,VALID,18.59,VALID,166,VALID,0.962109,
2012-05-27, 03:19:04,VALID,915.435,VALID,0,VALID,95.9941,VALID,0,VALID,18.5511,VALID,169,VALID,1.6375,
2012-05-27, 03:20:04,VALID,915.42,VALID,0,VALID,95.9178,VALID,0,VALID,18.5705,VALID,158,VALID,0.748828,
2012-05-27, 03:21:04,VALID,915.449,VALID,0,VALID,95.8721,VALID,0,VALID,18.5914,VALID,143,VALID,0.737891,
2012-05-27, 03:22:04,VALID,915.432,VALID,0,VALID,95.8035,VALID,0,VALID,18.5705,VALID,144,VALID,1.10273,
2012-05-27, 03:23:04,VALID,915.393,VALID,0,VALID,95.7425,VALID,0,VALID,18.5705,VALID,149,VALID,1.30313,
2012-05-27, 03:24:04,VALID,915.406,VALID,0,VALID,95.6662,VALID,0,VALID,18.5705,VALID,150,VALID,1.35664,
2012-05-27, 03:25:04,VALID,915.39,VALID,0,VALID,95.5748,VALID,0.107441,VALID,18.5914,VALID,165,VALID,1.42891,
2012-05-27, 03:26:04,VALID,915.366,VALID,0,VALID,95.4833,VALID,0,VALID,18.5914,VALID,104,VALID,0.901172,
2012-05-27, 03:27:04,VALID,915.301,VALID,0,VALID,95.4223,VALID,0,VALID,18.59,VALID,163,VALID,1.33008,
2012-05-27, 03:28:04,VALID,915.35,VALID,0,VALID,95.3842,VALID,0,VALID,18.59,VALID,165,VALID,1.1207,
2012-05-27, 03:29:04,VALID,915.323,VALID,0,VALID,95.3537,VALID,0,VALID,18.59,VALID,155,VALID,1.25469,
2012-05-27, 03:30:04,VALID,915.322,VALID,0,VALID,95.3537,VALID,0,VALID,18.5705,VALID,133,VALID,1.52461,
2012-05-27, 03:31:04,VALID,915.323,VALID,0,VALID,95.2927,VALID,0,VALID,18.5511,VALID,164,VALID,1.2957,
2012-05-27, 03:32:04,VALID,915.321,VALID,0,VALID,95.3003,VALID,0,VALID,18.5511,VALID,164,VALID,1.58203,
2012-05-27, 03:33:04,VALID,915.331,VALID,0,VALID,95.2393,VALID,0,VALID,18.5705,VALID,163,VALID,1.24375,
2012-05-27, 03:34:04,VALID,915.307,VALID,0,VALID,95.1555,VALID,0,VALID,18.5705,VALID,168,VALID,1.58008,
2012-05-27, 03:35:04,VALID,915.285,VALID,0,VALID,95.0945,VALID,0,VALID,18.59,VALID,176,VALID,1.22852,
2012-05-27, 03:36:04,VALID,915.278,VALID,0,VALID,95.0259,VALID,0,VALID,18.59,VALID,157,VALID,0.419141,
2012-05-27, 03:37:04,VALID,915.27,VALID,0,VALID,94.9878,VALID,0.107441,VALID,18.59,VALID,170,VALID,1.43906,
2012-05-27, 03:38:04,VALID,915.303,VALID,0,VALID,94.9496,VALID,0,VALID,18.5914,VALID,169,VALID,1.55039,
2012-05-27, 03:39:04,VALID,915.271,VALID,0,VALID,94.8963,VALID,0,VALID,18.5914,VALID,176,VALID,1.12578,
2012-05-27, 03:40:04,VALID,915.227,VALID,0,VALID,94.8887,VALID,0,VALID,18.6304,VALID,171,VALID,1.78281,
2012-05-27, 03:41:04,VALID,915.21,VALID,0,VALID,94.9192,VALID,0,VALID,18.6095,VALID,163,VALID,1.30195,
2012-05-27, 03:42:04,VALID,915.197,VALID,0,VALID,94.9268,VALID,0,VALID,18.6485,VALID,192,VALID,1.11758,
2012-05-27, 03:43:04,VALID,915.184,VALID,0,VALID,94.9115,VALID,0,VALID,18.6095,VALID,172,VALID,0.966016,
2012-05-27, 03:44:04,VALID,915.17,VALID,0,VALID,94.9801,VALID,0,VALID,18.6095,VALID,163,VALID,1.84922,
2012-05-27, 03:45:04,VALID,915.167,VALID,0,VALID,95.0183,VALID,0,VALID,18.6485,VALID,168,VALID,1.12461,